Temp
10 10 10 10 10 10 9 7 5 3 3 3 2 4 5 5 6 5 6 7 8 7 7 8 9 10 8 8 8 8 7 8 8 10 12 12 12 11 9 7 7 6 6 6
10 10 10 10 10 9 8 5 2 2 3 4 2 2 3 4 4 5 5 6 6 6 7 6 8 7 6 6 8 7 8 8 7 10 12 12 11 10 10 9 8 6 5 7
10 10 10 10 10 8 7 4 1 0 1 0 3 3 3 3 3 4 4 4 3 4 5 7 6 6 6 6 7 4 5 6 6 6 9 9 8 8 8 8 6 6 7 7
10 10 10 9 9 7 6 3 1 2 1 1 2 3 3 4 4 3 3 4 5 6 4 6 6 7 4 5 6 5 6 5 6 7 7 7 7 7 7 7 7 6 7 8
9 9 9 8 8 6 5 2 1 0 -0 1 1 2 3 4 3 3 4 4 6 5 4 6 5 7 6 6 7 6 7 5 5 3 5 6 6 7 7 8 8 8 8 6
8 8 8 6 5 4 3 1 1 2 0 2 2 3 4 4 3 2 5 6 5 5 6 7 6 6 6 6 6 6 6 5 4 3 6 6 5 6 8 8 8 8 5 7
7 6 6 4 3 3 3 2 1 0 2 2 3 3 3 4 3 4 5 5 6 5 3 4 4 4 5 5 6 6 5 5 4 3 5 3 7 10 8 7 7 8 6 4
5 3 2 2 3 3 3 2 1 1 3 5 4 4 5 5 5 5 5 5 5 3 3 3 3 5 5 6 6 6 6 5 4 3 4 6 7 8 5 5 5 3 1 2
3 2 2 2 2 2 1 -0 1 4 5 6 6 6 6 6 6 5 4 3 2 2 4 2 1 3 6 6 6 8 7 6 4 3 2 3 7 8 5 7 5 1 0 0
1 1 1 1 0 0 -0 1 2 3 3 4 4 6 5 5 6 5 5 2 2 2 2 2 3 4 6 3 4 5 6 5 2 3 2 4 8 5 5 4 3 -0 -1 -1
1 1 1 0 0 0 -0 1 1 1 3 2 1 1 3 4 4 4 3 3 2 3 1 2 4 4 5 4 4 5 4 4 3 3 2 2 5 5 1 1 -0 -1 -1 -1
0 -0 -0 -0 -0 -0 -1 -1 0 1 2 1 -0 0 1 2 2 3 2 3 3 3 2 3 3 3 3 3 2 5 3 4 3 3 2 3 4 2 1 0 -1 -1 -1 -1
-1 -1 -1 -1 -1 -0 -1 -1 -1 0 1 2 1 2 0 0 -0 1 2 2 2 2 2 2 3 2 4 2 3 3 4 5 4 3 5 4 3 2 1 -1 -1 -1 -0 1
-2 -2 -2 -1 -1 -1 -1 -1 -1 0 1 2 2 -0 0 -1 -0 -0 0 1 1 1 2 2 2 2 3 2 3 3 4 4 3 2 3 3 2 0 -1 -1 -0 -0 1 1
-2 -2 -2 -2 -2 -2 -2 -2 -2 -2 0 1 2 1 -1 -1 -1 -1 -1 -0 0 1 2 1 1 2 2 3 3 3 4 3 2 2 3 2 1 0 -1 -1 -0 0 0 0
-2 -2 -2 -2 -2 -2 -1 -2 -2 -3 -2 -1 3 1 0 -1 -1 -1 -1 -0 -0 0 1 1 2 2 1 1 2 4 4 3 3 3 3 2 0 -0 -1 -1 -0 0 0 -0
-3 -3 -2 -2 -2 -2 -1 -1 -2 -3 -3 -1 2 4 0 -0 -0 -0 -1 -1 -0 0 -1 -0 0 1 -1 0 1 3 4 3 1 -0 -1 -0 0 -0 -0 -0 -0 -0 0 -1
-2 -2 -2 -2 -2 -2 -2 -3 -2 -3 -2 -0 1 3 2 -1 0 -1 -1 -1 -2 -2 -1 -0 1 1 0 1 4 3 3 1 -0 -0 -1 -1 -1 -1 -1 -1 -1 -1 -1 -1
-2 -3 -3 -3 -2 -1 -2 -3 -3 -4 -2 -0 1 2 1 -1 -0 -2 -2 -2 -1 -0 -1 0 0 2 1 3 4 3 -0 -0 -0 -1 -0 -1 -1 -1 -1 -2 -2 -2 -2 -2
-3 -3 -3 -3 -3 -3 -3 -3 -3 -3 -3 -2 1 1 1 0 0 0 -0 -0 1 1 2 1 1 2 3 4 3 2 0 -1 -2 -1 -1 -1 -1 -2 -2 -2 -2 -2 -3 -3
-3 -2 -2 -3 -3 -3 -3 -2 -2 -2 -0 0 2 2 1 -0 0 0 1 1 2 1 2 2 3 4 1 2 1 0 -1 -2 -2 -2 -2 -2 -3 -3 -3 -2 -3 -2 -3 -3
-2 -3 -4 -4 -3 -3 -2 -0 0 1 3 3 3 2 1 0 -1 -0 1 1 2 2 1 2 3 3 3 2 1 -0 -2 -2 -2 -2 -2 -3 -2 -2 -2 -2 -2 -2 -3 -3
-3 -3 -3 -3 -2 -2 -1 -0 2 2 2 2 1 1 0 -1 -2 0 1 1 2 4 2 4 3 2 1 -0 -1 -1 -1 -2 -2 -2 -2 -3 -2 -2 -2 -3 -3 -5 -5 -5
-3 -2 -2 -1 -1 0 2 3 3 1 1 1 1 0 1 1 1 1 1 3 3 2 3 4 1 -1 -1 -1 -2 -1 -1 -2 -2 -2 -2 -3 -4 -4 -4 -4 -4 -5 -6 -6
-3 -2 -1 -1 1 1 0 0 0 1 1 1 1 1 1 1 1 2 2 2 2 4 3 1 -1 -2 -2 -2 -3 -3 -3 -3 -4 -4 -4 -5 -5 -4 -5 -5 -6 -6 -6 -6
-3 -2 -1 -0 -1 -1 -1 -2 -0 1 1 0 0 1 0 1 2 2 2 3 3 1 0 -0 -1 -2 -2 -3 -4 -4 -5 -5 -5 -4 -4 -5 -5 -5 -5 -5 -5 -5 -5 -5
-2 -1 -2 -2 -2 -2 -1 -2 -0 0 0 0 2 0 1 3 2 2 4 1 -1 -2 -2 -2 -3 -3 -4 -5 -5 -5 -6 -6 -5 -5 -6 -6 -6 -6 -5 -4 -5 -6 -6 -5
Height
1446 1448 1450 1453 1453 1453 1453 1456 1464 1465 1470 1480 1480 1475 1472 1472 1470 1473 1475 1476 1470 1470 1471 1470 1467 1461 1467 1474 1474 1472 1478 1470 1460 1451 1446 1445 1446 1447 1456 1458 1455 1454 1451 1428
1435 1438 1442 1443 1444 1442 1444 1450 1459 1464 1466 1468 1470 1471 1470 1471 1471 1471 1473 1472 1471 1473 1470 1474 1466 1468 1475 1475 1475 1475 1476 1469 1464 1435 1432 1439 1440 1448 1451 1453 1452 1448 1448 1414
1424 1427 1431 1432 1434 1436 1441 1443 1456 1462 1463 1460 1460 1462 1464 1465 1467 1467 1469 1472 1474 1474 1471 1469 1470 1471 1474 1474 1475 1479 1481 1474 1470 1457 1444 1451 1452 1449 1450 1451 1449 1440 1428 1420
1416 1421 1424 1423 1426 1428 1433 1438 1443 1443 1455 1456 1456 1458 1458 1460 1462 1466 1467 1468 1466 1467 1471 1468 1467 1468 1475 1476 1476 1478 1477 1471 1466 1458 1455 1455 1452 1450 1448 1441 1434 1431 1422 1412
1409 1412 1413 1415 1418 1420 1429 1433 1438 1444 1448 1447 1452 1455 1455 1455 1458 1461 1461 1462 1461 1466 1469 1465 1465 1463 1467 1468 1469 1469 1470 1466 1465 1462 1458 1455 1447 1441 1435 1428 1419 1412 1411 1415
1402 1406 1409 1412 1420 1423 1425 1433 1434 1437 1444 1447 1449 1447 1447 1449 1455 1461 1459 1459 1462 1463 1462 1462 1464 1465 1465 1463 1464 1464 1462 1463 1466 1456 1449 1444 1440 1431 1419 1417 1413 1414 1421 1409
1397 1404 1405 1411 1419 1424 1426 1429 1435 1438 1442 1445 1445 1446 1449 1449 1453 1456 1456 1459 1459 1463 1467 1467 1467 1465 1461 1458 1456 1459 1457 1456 1457 1455 1448 1448 1423 1412 1416 1420 1417 1413 1416 1419
1397 1402 1409 1416 1422 1425 1429 1433 1437 1439 1438 1440 1445 1445 1447 1449 1451 1454 1456 1459 1461 1463 1467 1470 1464 1453 1449 1446 1446 1448 1450 1451 1449 1447 1437 1426 1420 1413 1426 1425 1419 1424 1429 1421
1400 1402 1413 1417 1422 1426 1431 1434 1437 1441 1439 1437 1439 1440 1442 1443 1448 1453 1457 1459 1463 1465 1465 1469 1466 1449 1434 1434 1432 1435 1437 1441 1447 1442 1442 1435 1416 1415 1426 1421 1408 1423 1426 1418
1402 1405 1410 1414 1423 1429 1434 1436 1437 1442 1444 1444 1445 1442 1443 1444 1446 1449 1453 1462 1464 1463 1464 1463 1455 1443 1439 1442 1435 1431 1430 1431 1440 1436 1436 1427 1418 1426 1424 1420 1419 1418 1421 1415
1404 1406 1414 1418 1422 1428 1432 1435 1438 1440 1443 1447 1449 1448 1449 1448 1449 1451 1456 1462 1459 1459 1461 1458 1450 1443 1434 1437 1435 1431 1434 1434 1433 1432 1436 1433 1427 1425 1432 1431 1425 1424 1416 1409
1406 1412 1417 1421 1424 1429 1433 1436 1439 1442 1446 1448 1450 1451 1451 1451 1453 1453 1458 1457 1456 1457 1456 1451 1450 1447 1444 1439 1438 1431 1433 1433 1436 1437 1430 1428 1427 1431 1432 1428 1425 1418 1413 1405
1415 1415 1420 1426 1429 1432 1436 1438 1441 1444 1446 1448 1449 1450 1451 1450 1451 1454 1456 1455 1456 1456 1456 1455 1452 1449 1444 1440 1434 1433 1430 1430 1428 1429 1424 1423 1424 1424 1425 1425 1420 1414 1408 1404
1419 1423 1425 1428 1432 1435 1438 1442 1442 1446 1447 1447 1448 1449 1451 1451 1452 1453 1454 1457 1457 1457 1456 1454 1453 1449 1445 1440 1436 1432 1430 1429 1427 1425 1425 1425 1423 1425 1424 1419 1415 1410 1406 1402
1424 1427 1430 1432 1434 1437 1442 1443 1444 1446 1451 1447 1446 1450 1447 1449 1452 1453 1453 1456 1457 1455 1453 1453 1451 1447 1444 1436 1433 1427 1423 1423 1424 1421 1424 1425 1421 1421 1419 1416 1411 1407 1403 1398
1430 1430 1434 1438 1436 1439 1446 1446 1448 1448 1450 1451 1443 1449 1447 1448 1452 1452 1451 1453 1455 1454 1452 1450 1446 1445 1446 1438 1425 1419 1419 1420 1420 1419 1418 1418 1417 1416 1413 1411 1408 1405 1401 1397
1433 1434 1439 1439 1439 1443 1445 1446 1450 1447 1449 1453 1448 1442 1447 1449 1450 1449 1450 1451 1451 1451 1451 1449 1446 1442 1444 1435 1425 1419 1417 1416 1418 1418 1417 1414 1412 1411 1411 1408 1405 1403 1399 1396
1437 1439 1441 1441 1443 1446 1449 1447 1448 1448 1451 1451 1448 1443 1445 1448 1446 1447 1447 1450 1451 1450 1448 1443 1439 1437 1436 1426 1415 1414 1415 1417 1418 1416 1414 1410 1411 1410 1408 1406 1403 1401 1398 1394
1441 1444 1446 1448 1448 1449 1449 1448 1447 1448 1453 1450 1448 1442 1442 1447 1446 1447 1447 1447 1444 1441 1440 1436 1435 1426 1422 1413 1412 1413 1414 1416 1415 1414 1412 1411 1411 1409 1407 1405 1402 1400 1396 1393
1446 1448 1450 1449 1450 1450 1450 1450 1450 1450 1451 1451 1447 1445 1445 1448 1445 1443 1444 1441 1436 1427 1425 1426 1424 1413 1410 1409 1410 1411 1413 1414 1414 1413 1412 1411 1410 1408 1406 1404 1401 1398 1395 1392
1449 1450 1450 1451 1450 1451 1450 1450 1449 1449 1448 1447 1444 1444 1445 1445 1443 1439 1439 1434 1429 1423 1418 1418 1408 1399 1406 1409 1411 1412 1413 1413 1413 1412 1412 1411 1409 1407 1405 1402 1399 1397 1394 1390
1448 1449 1449 1450 1451 1451 1451 1445 1446 1443 1436 1440 1440 1442 1443 1443 1443 1441 1436 1431 1426 1418 1419 1416 1401 1399 1404 1409 1411 1413 1413 1413 1412 1412 1411 1409 1408 1406 1404 1401 1398 1396 1393 1390
1449 1450 1450 1450 1451 1449 1447 1444 1437 1438 1439 1441 1442 1443 1442 1441 1442 1438 1432 1427 1419 1413 1412 1399 1397 1403 1408 1410 1412 1412 1412 1412 1412 1410 1409 1408 1406 1404 1402 1400 1398 1393 1390 1387
1449 1449 1448 1447 1445 1442 1436 1434 1435 1439 1440 1441 1441 1441 1439 1436 1435 1432 1427 1415 1411 1408 1398 1392 1402 1407 1410 1411 1411 1412 1411 1410 1409 1408 1407 1405 1403 1401 1399 1397 1394 1391 1388 1385
1448 1448 1443 1441 1439 1439 1440 1440 1440 1440 1439 1439 1438 1437 1437 1434 1431 1424 1417 1412 1405 1394 1394 1406 1410 1409 1410 1411 1411 1410 1409 1407 1406 1405 1404 1401 1399 1397 1395 1393 1391 1389 1386 1383
1446 1445 1442 1439 1440 1439 1439 1439 1438 1437 1437 1437 1437 1435 1432 1426 1420 1414 1409 1400 1394 1402 1407 1409 1409 1408 1409 1409 1409 1408 1407 1405 1404 1403 1401 1399 1396 1394 1391 1389 1388 1386 1384 1382
1442 1439 1439 1439 1438 1437 1437 1437 1435 1435 1435 1434 1431 1430 1424 1418 1413 1406 1400 1404 1412 1413 1412 1410 1409 1407 1407 1407 1406 1404 1404 1404 1402 1400 1397 1395 1393 1391 1390 1387 1385 1382 1381 1379
Wind_Speed
40 37 35 34 38 36 33 30 3 17 25 5 5 4 5 4 6 3 5 5 11 4 3 4 6 4 1 4 0 1 3 6 13 20 21 21 18 17 4 5 6 9 12 17
37 34 34 32 29 32 35 14 7 25 32 5 4 3 3 6 6 7 7 8 5 2 6 5 9 4 7 5 1 1 5 3 10 13 8 3 8 9 10 15 16 22 16 18
35 36 31 29 27 30 33 13 4 6 12 3 3 6 5 6 12 5 5 3 5 6 8 7 3 4 7 6 4 4 1 9 12 13 17 15 20 22 19 19 12 18 20 28
25 28 32 28 29 34 35 8 4 8 5 6 4 9 7 7 7 4 8 4 12 10 4 5 7 9 6 10 10 8 7 14 15 19 19 19 21 23 23 24 24 23 22 28
27 27 24 25 29 38 24 10 6 6 5 9 11 9 7 9 4 8 6 5 9 8 6 8 6 9 10 10 9 12 14 16 13 16 17 20 23 21 25 25 24 23 18 21
10 7 6 8 27 37 6 6 12 9 8 4 5 5 6 9 10 3 6 9 6 10 13 11 10 11 13 12 12 14 14 12 11 18 17 19 17 19 21 16 16 16 15 23
12 9 9 17 29 35 8 13 12 5 3 3 4 6 5 9 9 3 7 11 11 2 2 5 12 18 21 21 19 21 18 17 12 14 17 20 20 13 5 13 14 16 18 17
12 16 20 25 26 18 12 8 5 3 3 7 7 8 10 12 10 10 9 7 1 4 2 4 8 11 16 19 20 20 19 16 14 14 16 20 22 9 5 13 19 10 14 20
21 21 17 15 13 11 10 10 8 2 2 7 7 10 11 9 8 9 7 4 5 5 3 4 6 5 10 5 5 12 15 15 12 15 16 18 16 8 5 15 16 15 22 21
18 17 15 14 13 12 8 9 8 2 1 2 4 8 8 11 7 5 9 10 7 7 4 8 11 12 12 10 15 14 11 11 14 13 13 12 19 12 14 8 9 33 31 32
20 19 16 15 13 12 8 10 11 5 4 3 1 2 1 3 7 5 6 6 6 6 6 7 9 9 11 5 14 13 13 10 12 13 16 22 13 14 6 9 28 32 32 33
20 18 16 14 13 11 9 6 8 6 3 4 3 3 4 2 2 5 10 6 4 7 4 4 4 7 6 12 11 13 12 10 10 10 7 23 19 9 17 22 26 30 31 34
18 18 15 13 11 10 11 10 7 5 3 3 4 3 4 7 6 6 7 8 10 6 9 6 5 9 8 10 10 14 13 13 11 15 17 13 26 30 22 19 27 28 23 23
20 18 17 16 14 14 13 9 8 5 2 1 5 2 1 2 7 10 12 11 3 7 8 10 6 8 10 11 13 12 13 13 15 15 15 21 21 17 20 28 24 25 20 21
19 19 18 17 16 16 12 10 9 7 3 1 2 2 2 3 6 9 10 12 12 12 9 5 8 14 11 12 12 11 15 13 9 10 17 15 24 26 28 22 21 17 19 20
17 16 14 13 13 13 5 5 7 6 6 1 1 2 1 1 4 6 10 12 14 16 11 9 12 16 10 5 8 14 13 8 11 15 18 15 21 26 21 14 15 15 16 17
14 12 11 11 11 6 3 4 3 5 5 1 2 4 4 3 3 3 6 8 10 11 6 12 18 18 6 5 13 19 16 10 11 16 19 18 10 7 12 13 14 14 14 14
12 11 10 9 10 9 6 4 3 7 1 1 1 0 4 1 3 3 6 6 7 6 10 8 9 10 7 5 9 5 6 8 9 12 12 6 5 8 11 12 13 14 14 17
13 11 11 8 1 1 1 1 4 3 3 1 1 2 3 1 3 3 4 7 5 7 6 5 5 5 7 9 10 10 1 3 10 11 7 4 7 8 10 11 12 14 16 18
13 6 1 1 1 4 4 5 2 1 1 1 2 1 2 2 2 3 2 6 3 3 7 5 4 8 22 14 11 7 5 4 6 5 6 8 8 10 11 12 13 14 15 18
1 1 1 1 4 2 1 0 1 2 3 5 3 4 4 3 3 2 3 2 2 3 3 3 4 3 5 5 2 3 3 2 3 4 5 6 8 10 12 13 14 15 17 18
3 3 4 3 2 0 1 1 1 3 1 3 2 3 4 3 3 4 4 3 2 5 6 3 3 3 10 7 3 3 2 2 3 4 6 8 9 11 12 14 14 16 16 17
1 1 1 1 1 2 2 4 2 1 3 1 3 4 3 2 4 5 3 4 5 1 3 3 2 10 8 5 2 1 2 3 5 6 7 8 10 11 12 13 14 17 16 18
1 2 2 3 3 4 3 2 3 3 2 5 6 5 3 3 4 4 4 5 3 4 4 2 6 10 5 2 1 4 5 5 7 9 8 8 10 14 15 14 16 17 17 18
2 3 3 5 6 3 3 3 4 5 6 7 6 6 5 3 4 4 5 3 5 4 2 3 4 4 2 3 5 6 7 7 9 9 10 13 13 13 14 13 13 13 17 18
3 5 3 4 3 6 5 6 9 8 8 7 4 3 3 5 4 4 6 4 3 3 3 7 4 2 2 3 5 7 10 9 9 9 10 10 13 13 13 14 13 15 16 18
3 4 6 9 9 9 8 7 8 4 6 3 4 3 6 3 4 4 3 3 3 10 12 12 6 2 2 3 6 9 10 9 10 11 11 11 11 13 13 12 13 14 15 16
Wind_Direction
255 256 258 264 262 252 231 212 180 178 178 146 182 208 208 184 190 175 223 262 264 249 211 245 254 250 54 112 124 252 68 303 281 286 281 270 271 281 318 274 289 281 290 271
253 257 261 258 256 249 216 168 136 164 174 200 197 202 207 200 191 196 196 219 254 258 212 226 234 176 131 137 150 163 23 269 308 303 158 199 185 194 299 296 286 269 276 277
249 256 249 249 256 242 209 150 137 167 203 211 219 165 190 195 209 203 188 144 155 199 211 225 213 171 180 183 217 140 278 251 244 259 287 309 291 291 292 282 271 276 269 287
256 257 256 248 243 225 202 159 168 170 184 219 188 178 186 171 177 200 173 192 215 202 181 215 228 221 184 224 236 230 239 259 260 270 282 286 282 282 281 273 274 269 278 277
256 249 247 248 244 209 187 148 146 143 156 156 171 184 197 186 156 167 181 233 192 209 218 221 255 249 227 242 251 230 231 260 271 273 278 275 275 279 279 282 273 269 289 297
201 211 215 212 211 187 163 132 132 136 164 163 167 197 178 186 150 223 200 208 220 226 240 260 264 264 258 253 248 255 252 253 253 268 283 288 275 269 275 299 311 310 301 313
190 187 193 186 198 195 193 162 144 120 152 182 177 160 139 151 179 182 217 219 212 130 124 278 267 259 255 252 248 245 248 245 248 256 272 267 269 278 288 295 294 308 331 330
159 160 174 185 194 205 230 204 147 140 141 181 183 188 194 202 202 218 194 200 192 143 261 281 273 253 242 241 240 239 235 245 256 256 259 272 288 319 360 317 304 40 342 327
155 157 173 190 203 213 158 149 133 168 153 211 190 188 186 187 196 179 210 126 182 191 231 223 247 263 290 274 245 216 222 214 235 251 272 271 285 315 323 304 296 8 340 326
162 161 159 150 143 142 140 166 163 140 260 88 193 198 208 215 214 225 181 173 203 206 222 246 258 267 269 257 265 262 256 233 241 252 259 281 301 10 319 283 318 330 322 310
134 132 139 141 144 153 149 169 173 136 196 133 268 13 196 159 221 201 145 174 224 184 235 258 275 260 265 289 259 281 282 281 273 273 273 270 350 338 358 328 309 305 302 300
124 126 131 140 148 156 128 139 172 151 124 90 181 198 198 195 247 238 169 250 145 206 232 246 277 278 280 282 278 278 272 267 282 283 276 296 313 346 312 315 298 305 305 308
120 121 123 123 124 127 116 112 105 94 123 164 192 208 226 222 208 207 215 230 252 240 271 302 275 278 285 275 275 291 279 266 265 274 281 304 315 314 314 306 301 307 312 324
117 115 111 108 108 110 100 99 81 87 112 233 124 144 115 204 221 228 229 261 258 259 234 242 255 272 282 285 284 277 272 276 272 272 278 296 295 283 302 303 308 312 320 326
118 115 115 111 106 102 97 87 70 61 56 354 73 181 147 212 231 224 227 233 235 244 246 245 262 277 288 276 277 270 267 270 262 277 290 285 283 290 295 307 310 322 326 330
124 117 117 117 109 100 116 84 56 40 35 28 264 73 130 163 190 224 231 231 239 244 256 271 267 271 264 278 275 293 313 290 279 274 284 284 282 288 300 303 312 319 325 329
126 120 117 108 103 80 117 76 124 31 57 50 264 158 134 195 243 223 213 214 220 239 240 246 261 272 227 254 268 275 270 282 325 320 298 280 291 306 315 313 321 324 328 336
126 117 113 107 96 75 77 106 65 56 86 122 308 39 185 44 275 250 183 204 212 229 242 257 257 262 220 260 265 276 296 283 281 303 324 317 309 322 326 329 330 332 336 336
130 120 103 93 92 151 99 344 50 37 120 296 110 311 31 34 273 277 211 200 211 218 216 228 236 227 223 245 266 281 89 288 302 313 317 336 335 332 335 337 340 339 339 340
128 91 75 43 191 138 58 34 74 37 97 156 252 50 327 288 253 235 245 205 247 227 215 181 227 254 248 261 288 305 332 343 324 331 350 345 344 344 337 337 334 333 336 335
75 180 130 160 118 64 15 91 266 133 206 197 244 325 314 280 279 301 232 270 242 257 170 235 220 245 166 162 137 92 35 40 23 6 355 350 340 337 339 341 342 341 336 334
200 163 144 140 220 188 294 196 105 238 24 147 290 354 313 281 241 258 238 256 241 258 142 237 249 103 137 150 125 90 45 9 346 338 337 341 341 339 337 339 341 340 337 332
92 128 128 208 134 232 237 171 209 192 147 223 300 313 300 225 231 253 257 236 237 218 227 237 58 124 106 97 101 266 252 292 311 317 323 326 327 331 334 331 332 333 336 337
145 183 206 231 165 245 231 302 48 70 283 325 309 293 255 269 228 234 248 238 253 248 236 291 83 86 94 72 347 299 288 285 291 305 302 310 315 309 314 317 321 330 336 339
231 219 239 218 244 262 271 284 278 267 279 284 280 271 230 249 249 241 251 243 243 240 3 59 53 84 4 332 324 313 309 306 307 306 304 306 313 317 317 320 325 323 327 330
230 231 259 252 265 251 240 254 259 268 261 272 273 253 263 240 231 231 233 260 283 45 26 360 332 266 283 313 307 296 294 307 308 308 309 309 306 319 316 330 335 321 326 323
235 236 249 264 275 266 258 256 256 269 278 249 248 235 237 306 255 258 289 354 25 357 351 346 337 38 22 305 294 292 300 311 306 306 306 310 313 315 315 311 312 318 322 316